| time (UTC) | temp F | wind direction | speed MPH | gust MPH | rain 1hr in | rain 24hr in | rain mn in | humidity % | barometer mb |
| 20260904120008 | 54 | 312 | 2.0 | 5.0 | 0.13 | 0.32 | 0.32 | 98 | 994.7 |
| 20260904114505 | 54 | 314 | 1.0 | 5.0 | 0.15 | 0.31 | 0.31 | 97 | 994.9 |
| 20260904113003 | 54 | 290 | 1.0 | 5.0 | 0.17 | 0.26 | 0.26 | 97 | 995.2 |
| 20260904111501 | 54 | 293 | 1.0 | 5.0 | 0.15 | 0.23 | 0.23 | 97 | 995.3 |
| 20260904110100 | 55 | 298 | 1.0 | 5.0 | 0.14 | 0.20 | 0.20 | 97 | 995.6 |
| 20260904104559 | 55 | 177 | 0.0 | 5.0 | 0.11 | 0.16 | 0.16 | 97 | 995.8 |
| 20260904103055 | 55 | 174 | 0.0 | 5.0 | 0.04 | 0.09 | 0.09 | 96 | 996.1 |
| 20260904101554 | 55 | 297 | 0.0 | 2.0 | 0.04 | 0.08 | 0.08 | 96 | 996.1 |
| 20260904100055 | 55 | 301 | 0.0 | 3.0 | 0.02 | 0.06 | 0.06 | 95 | 996.3 |
| 20260904094551 | 55 | 207 | 0.0 | 4.0 | 0.01 | 0.05 | 0.05 | 94 | 996.5 |
| 20260904093050 | 55 | 330 | 1.0 | 4.0 | 0.01 | 0.05 | 0.05 | 93 | 996.5 |
| 20260904091552 | 55 | 298 | 0.0 | 3.0 | 0.00 | 0.04 | 0.04 | 93 | 996.8 |
| 20260904090050 | 54 | 298 | 0.0 | 2.0 | 0.00 | 0.04 | 0.04 | 94 | 996.8 |
| 20260904084544 | 54 | 298 | 0.0 | 3.0 | 0.01 | 0.04 | 0.04 | 95 | 997.0 |
| 20260904083041 | 53 | 298 | 0.0 | 1.0 | 0.01 | 0.04 | 0.04 | 95 | 997.1 |
| 20260904081548 | 53 | 298 | 0.0 | 3.0 | 0.01 | 0.04 | 0.04 | 96 | 997.2 |
| 20260904080043 | 53 | 6 | 0.0 | 3.0 | 0.02 | 0.04 | 0.04 | 97 | 997.3 |
| 20260904074539 | 53 | 21 | 0.0 | 1.0 | 0.02 | 0.03 | 0.03 | 98 | 997.4 |
| 20260904073034 | 52 | 21 | 0.0 | 0.0 | 0.02 | 0.03 | 0.03 | 98 | 997.7 |
| 20260904071531 | 52 | 21 | 0.0 | 0.0 | 0.02 | 0.03 | 0.03 | 98 | 997.8 |
| 20260904070030 | 51 | 21 | 0.0 | 0.0 | 0.02 | 0.02 | 0.02 | 98 | 997.9 |
| 20260904064525 | 51 | 21 | 0.0 | 0.0 | 0.02 | 0.02 | 0.02 | 98 | 998.0 |
| 20260904063024 | 50 | 21 | 0.0 | 0.0 | 0.02 | 0.02 | 0.02 | 98 | 998.1 |
| 20260904061537 | 50 | 21 | 0.0 | 0.0 | 0.01 | 0.01 | 0.01 | 99 | 998.2 |
| 20260904060022 | 49 | 21 | 0.0 | 1.0 | 0.00 | 0.00 | 0.00 | 99 | 998.2 |
| 20260904054521 | 47 | 115 | 0.0 | 0.0 | 0.00 | 0.00 | 0.00 | 98 | 998.2 |
| 20260904053013 | 47 | 115 | 0.0 | 0.0 | 0.00 | 0.00 | 0.00 | 98 | 998.3 |
| 20260904051511 | 46 | 115 | 0.0 | 0.0 | 0.00 | 0.00 | 0.00 | 98 | 998.5 |
| 20260904050017 | 46 | 115 | 0.0 | 0.0 | 0.00 | 0.00 | 0.00 | 98 | 998.5 |
| 20260904044509 | 45 | 115 | 0.0 | 0.0 | 0.00 | 0.00 | 0.00 | 98 | 998.5 |
| 20260904043005 | 45 | 115 | 0.0 | 0.0 | 0.00 | 0.00 | 0.00 | 98 | 998.5 |
| 20260904041504 | 44 | 115 | 0.0 | 0.0 | 0.00 | 0.00 | 0.00 | 98 | 998.7 |
| 20260904040001 | 44 | 115 | 0.0 | 0.0 | 0.00 | 0.00 | 0.00 | 98 | 998.7 |
| 20260904034600 | 43 | 115 | 0.0 | 0.0 | 0.00 | 0.00 | 0.00 | 98 | 998.8 |
| 20260904033059 | 43 | 115 | 0.0 | 0.0 | 0.00 | 0.00 | 0.00 | 98 | 998.9 |
| 20260904031557 | 43 | 115 | 0.0 | 0.0 | 0.00 | 0.00 | 0.00 | 97 | 999.1 |
| 20260904030106 | 43 | 115 | 0.0 | 0.0 | 0.00 | 0.00 | 0.00 | 98 | 999.2 |
| 20260904024554 | 42 | 115 | 0.0 | 0.0 | 0.00 | 0.00 | 0.00 | 97 | 999.5 |
| 20260904023054 | 42 | 115 | 0.0 | 1.0 | 0.00 | 0.00 | 0.00 | 97 | 999.5 |
| 20260904021553 | 42 | 115 | 0.0 | 1.0 | 0.00 | 0.00 | 0.00 | 97 | 999.3 |
| 20260904020051 | 43 | 115 | 0.0 | 0.0 | 0.00 | 0.00 | 0.00 | 97 | 999.3 |
| 20260904014556 | 43 | 115 | 0.0 | 0.0 | 0.00 | 0.00 | 0.00 | 97 | 999.4 |
| 20260904013048 | 43 | 115 | 0.0 | 0.0 | 0.00 | 0.00 | 0.00 | 97 | 999.6 |
| 20260904011546 | 44 | 115 | 0.0 | 0.0 | 0.00 | 0.00 | 0.00 | 97 | 1000.0 |
| 20260904010044 | 44 | 115 | 0.0 | 0.0 | 0.00 | 0.00 | 0.00 | 97 | 1000.2 |
| 20260904004545 | 44 | 115 | 0.0 | 0.0 | 0.00 | 0.00 | 0.00 | 97 | 1000.2 |
| 20260904003045 | 43 | 115 | 0.0 | 0.0 | 0.00 | 0.00 | 0.00 | 97 | 1000.3 |
| 20260904001540 | 43 | 115 | 0.0 | 0.0 | 0.00 | 0.00 | 0.00 | 96 | 1000.4 |
| 20260904000038 | 43 | 115 | 0.0 | 0.0 | 0.00 | 0.00 | 0.00 | 96 | 1000.6 |
| 20260903234537 | 43 | 115 | 0.0 | 0.0 | 0.00 | 0.00 | 0.00 | 96 | 1000.7 |
| 20260903233043 | 43 | 115 | 0.0 | 0.0 | 0.00 | 0.00 | 0.00 | 96 | 1000.9 |
| 20260903231534 | 43 | 115 | 0.0 | 0.0 | 0.00 | 0.00 | 0.00 | 96 | 1000.9 |
| 20260903230035 | 43 | 115 | 0.0 | 0.0 | 0.00 | 0.00 | 0.00 | 96 | 1001.0 |
| 20260903224532 | 43 | 115 | 0.0 | 0.0 | 0.00 | 0.00 | 0.00 | 96 | 1001.1 |
| 20260903223032 | 43 | 115 | 0.0 | 0.0 | 0.00 | 0.00 | 0.00 | 95 | 1001.2 |
| 20260903221529 | 43 | 115 | 0.0 | 0.0 | 0.00 | 0.00 | 0.00 | 94 | 1001.3 |
| 20260903220027 | 44 | 115 | 0.0 | 0.0 | 0.00 | 0.00 | 0.00 | 95 | 1001.4 |
| 20260903214529 | 44 | 115 | 0.0 | 0.0 | 0.00 | 0.00 | 0.00 | 94 | 1001.5 |
| 20260903213021 | 44 | 115 | 0.0 | 0.0 | 0.00 | 0.00 | 0.00 | 94 | 1001.6 |
| 20260903211520 | 44 | 115 | 0.0 | 0.0 | 0.00 | 0.00 | 0.00 | 94 | 1001.6 |
| 20260903210029 | 44 | 115 | 0.0 | 1.0 | 0.00 | 0.00 | 0.00 | 93 | 1001.6 |
| 20260903204520 | 44 | 115 | 0.0 | 0.0 | 0.00 | 0.00 | 0.00 | 92 | 1001.7 |
| 20260903203024 | 45 | 115 | 0.0 | 0.0 | 0.00 | 0.00 | 0.00 | 91 | 1001.7 |
| 20260903201514 | 45 | 115 | 0.0 | 0.0 | 0.00 | 0.00 | 0.00 | 91 | 1001.7 |
| 20260903200011 | 46 | 115 | 0.0 | 0.0 | 0.00 | 0.00 | 0.00 | 90 | 1001.9 |
| 20260903194518 | 46 | 115 | 0.0 | 0.0 | 0.00 | 0.00 | 0.00 | 89 | 1001.8 |
| 20260903193007 | 47 | 115 | 0.0 | 0.0 | 0.00 | 0.00 | 0.00 | 88 | 1002.0 |
| 20260903191506 | 48 | 115 | 0.0 | 1.0 | 0.00 | 0.00 | 0.00 | 88 | 1002.0 |
| 20260903190001 | 48 | 115 | 0.0 | 0.0 | 0.00 | 0.00 | 0.00 | 86 | 1002.2 |
| 20260903184601 | 50 | 115 | 0.0 | 0.0 | 0.00 | 0.00 | 0.00 | 85 | 1002.2 |
| 20260903183100 | 51 | 115 | 0.0 | 0.0 | 0.00 | 0.00 | 0.00 | 82 | 1002.4 |
| 20260903181557 | 52 | 115 | 0.0 | 0.0 | 0.00 | 0.00 | 0.00 | 81 | 1002.5 |
| 20260903180056 | 53 | 115 | 0.0 | 0.0 | 0.00 | 0.00 | 0.00 | 78 | 1002.6 |
| 20260903174555 | 55 | 115 | 0.0 | 0.0 | 0.00 | 0.00 | 0.00 | 74 | 1002.6 |
| 20260903173054 | 56 | 115 | 0.0 | 0.0 | 0.00 | 0.00 | 0.00 | 71 | 1002.6 |
| 20260903171553 | 57 | 115 | 0.0 | 0.0 | 0.00 | 0.00 | 0.00 | 69 | 1002.6 |
| 20260903170054 | 58 | 115 | 0.0 | 1.0 | 0.00 | 0.00 | 0.00 | 66 | 1002.7 |
| 20260903164602 | 59 | 115 | 0.0 | 1.0 | 0.00 | 0.00 | 0.00 | 64 | 1002.8 |
| 20260903163051 | 60 | 115 | 0.0 | 1.0 | 0.00 | 0.00 | 0.00 | 62 | 1002.9 |
| 20260903161553 | 61 | 139 | 0.0 | 4.0 | 0.00 | 0.00 | 0.00 | 60 | 1003.0 |
| 20260903160048 | 62 | 114 | 1.0 | 6.0 | 0.00 | 0.00 | 0.00 | 57 | 1002.9 |
| 20260903154548 | 63 | 132 | 0.0 | 5.0 | 0.00 | 0.00 | 0.00 | 54 | 1003.1 |
| 20260903153047 | 64 | 50 | 1.0 | 6.0 | 0.00 | 0.00 | 0.00 | 51 | 1003.0 |
| 20260903151544 | 65 | 29 | 1.0 | 8.0 | 0.00 | 0.00 | 0.00 | 48 | 1003.3 |
| 20260903150045 | 65 | 182 | 2.0 | 9.0 | 0.00 | 0.00 | 0.00 | 46 | 1003.4 |
| 20260903144543 | 66 | 137 | 1.0 | 8.0 | 0.00 | 0.00 | 0.00 | 48 | 1003.4 |
| 20260903143102 | 65 | 355 | 3.0 | 9.0 | 0.00 | 0.00 | 0.00 | 50 | 1003.6 |
| 20260903141540 | 64 | 31 | 0.0 | 5.0 | 0.00 | 0.00 | 0.00 | 55 | 1003.6 |
| 20260903140034 | 64 | 129 | 1.0 | 11.0 | 0.00 | 0.00 | 0.00 | 56 | 1003.7 |
| 20260903134532 | 63 | 150 | 1.0 | 5.0 | 0.00 | 0.00 | 0.00 | 57 | 1003.9 |
| 20260903133030 | 63 | 155 | 4.0 | 8.0 | 0.00 | 0.00 | 0.00 | 55 | 1004.1 |
| 20260903131528 | 63 | 345 | 2.0 | 10.0 | 0.00 | 0.00 | 0.00 | 55 | 1004.3 |
| 20260903130026 | 62 | 65 | 1.0 | 9.0 | 0.00 | 0.00 | 0.00 | 55 | 1004.5 |
| 20260903124532 | 62 | 27 | 3.0 | 13.0 | 0.00 | 0.00 | 0.00 | 56 | 1004.6 |
| 20260903123036 | 63 | 78 | 4.0 | 10.0 | 0.00 | 0.00 | 0.00 | 57 | 1004.5 |
| 20260903121531 | 62 | 100 | 3.0 | 16.0 | 0.00 | 0.00 | 0.00 | 58 | 1004.7 |